Regional Weather Roundup
Issued by NWS Upton, NY

Current Version | Previous Version | Text Only | Print | Product List | Glossary On
Versions: 1 2 3 4 5 6 7 8 9 10 11 12 13 14 15 16 17 18 19 20 21 22 23 24 25 26 27 28 29 30 31 32 33 34 35 36 37 38 39 40 41 42 43 44 45 46 47 48 49 50
000
ASUS41 KOKX 212105
RWROKX

REGIONAL WEATHER ROUNDUP
NATIONAL WEATHER SERVICE NEW YORK NY
500 PM EDT MON JUL 21 2014

NOTE: "FAIR" INDICATES FEW OR NO CLOUDS BELOW 12,000 FEET WITH NO
SIGNIFICANT WEATHER AND/OR OBSTRUCTIONS TO VISIBILITY.

NYZ071-072-176-178-NJZ106-104-212200-
NEW YORK CITY METRO AREA


CITY           SKY/WX    TMP DP  RH WIND       PRES   REMARKS
CENTRAL PARK   SUNNY     81  62  52 VRB3      30.16F
LAGUARDIA APRT MOSUNNY   83  61  47 S9        30.13S
KENNEDY INTL   MOSUNNY   79  63  57 S12       30.15F
NEWARK/LIBERTY PTSUNNY   83  62  49 S10G16    30.13S
BRNX BOT. GARD   N/A     84  61  45 E5        30.15S
TETERBORO      MOSUNNY   87  59  38 CALM      30.11F
$$

NYZ177-179-078>081-212200-
LONG ISLAND NEW YORK

CITY           SKY/WX    TMP DP  RH WIND       PRES   REMARKS
FARMINGDALE    SUNNY     77  63  61 SE13      30.15S
ISLIP          MOSUNNY   77  63  61 S9        30.14S
SHIRLEY        SUNNY     76  63  64 S9        30.16F
WESTHAMPTON    SUNNY     74  61  63 VRB6      30.17F
MONTAUK POINT    N/A     75  64  68 S5        30.17F
$$

NYZ052-065-067-212200-
HUDSON VALLEY

CITY           SKY/WX    TMP DP  RH WIND       PRES   REMARKS
WHITE PLAINS   MOSUNNY   80  63  55 SE6       30.14F
NEWBURGH       MOSUNNY   82  64  54 CALM      30.15F
MONTGOMERY     SUNNY     84  62  47 VRB3      30.13S
POUGHKEEPSIE   MOSUNNY   84  61  45 CALM      30.12S
ALBANY         MOSUNNY   83  62  49 S3        30.12F
$$

NJZ001-105-106-008-010-013-015-019>022-104-212200-
NEW JERSEY

CITY           SKY/WX    TMP DP  RH WIND       PRES   REMARKS
NEWARK/LIBERTY PTSUNNY   83  62  49 S10G16    30.13S
TETERBORO      MOSUNNY   87  59  38 CALM      30.11F
CALDWELL       MOSUNNY   84  61  45 W5        30.14S
MORRISTOWN     PTSUNNY   84  61  45 CALM      30.14F
SOMERVILLE     CLOUDY    82  64  54 CALM      30.12F
LINDEN         MOCLDY    85  60  42 S8        30.15S
SUSSEX         SUNNY     85  63  47 VRB3      30.14F
ANDOVER          N/A     81  60  48 SW3       30.15F
TRENTON        CLOUDY    82  58  43 W5        30.15S
MILLVILLE      MOSUNNY   77  63  61 VRB6      30.18R
ATLANTIC CITY  MOSUNNY   76  61  59 E10       30.18R
WRIGHTSTOWN    MOSUNNY   84  61  46 CALM      30.13F
TOMS RIVER     MOSUNNY   81  63  54 SE6       30.17S
BELMAR         MOSUNNY   79  63  57 SE8       30.16S
$$

PAZ047>061-062-071-212200-
EASTERN PENNSYLVANIA

CITY           SKY/WX    TMP DP  RH WIND       PRES   REMARKS
PHILADELPHIA   CLOUDY    84  58  40 SW5       30.15S
ALLENTOWN      CLOUDY    82  64  54 SW8       30.14F
SCRANTON       SUNNY     83  61  47 SW8       30.15S
$$

CTZ002-004>006-009-010-012-RIZ004-006-007-MAZ004-011-015-212200-
SOUTHERN NEW ENGLAND
 IN CT

CITY           SKY/WX    TMP DP  RH WIND       PRES   REMARKS
BRADLEY INTL   MOSUNNY   85  58  39 N5        30.12F
HARTFORD       MOSUNNY   83  57  41 SE3       30.12F
DANBURY        PTSUNNY   81  61  50 SW8       30.15F
WTRBRY/OXFORD  MOSUNNY   81  63  54 VRB5      30.18F
BRIDGEPORT     SUNNY     79  61  53 S7        30.14F
MERIDEN        MOSUNNY   84  58  40 CALM      30.13F
NEW HAVEN      MOSUNNY   78  63  59 S7        30.14F
CHESTER        FAIR      77  63  61 SW7       30.16S
GROTON         SUNNY     73  61  65 S8        30.14F
WILLIMANTIC    SUNNY     82  56  40 VRB3      30.14F

 IN RI

CITY           SKY/WX    TMP DP  RH WIND       PRES   REMARKS
PROVIDENCE     MOSUNNY   80  56  43 NE9       30.14F
BLOCK ISLAND   SUNNY     72  63  73 E6        30.16F
WESTERLY       SUNNY     74  62  66 VRB7      30.16F

 IN MA

CITY           SKY/WX    TMP DP  RH WIND       PRES   REMARKS
BOSTON         MOSUNNY   67  62  84 E8        30.16F
WORCESTER      SUNNY     78  55  44 VRB3      30.17F
WESTFIELD      MOSUNNY   83  59  44 VRB5      30.13S
PROVINCETOWN   CLOUDY    68  64  88 CALM      30.16F
NANTUCKET      CLOUDY    69  63  81 NE15      30.14S
$$

ANZ330-335-338-340-345-350-353-355-212200-
COASTAL MARINE OBSERVATIONS


STATION/POSITION TIME  SKY/WX   TEMP    WIND        PRES    VSBY  WAVE
                                AIR SEA DIR/SP/G                  HT/PER
                 (UTC)          (F)     (DEG/KT/KT) (MB)    (MI)  (FT/S)
NY HARB ENTRANCE NOT AVBL
4S FIRE IS       NOT AVBL
23SW MTP         2100            71 72              1020.8          3/ 8
HUDSON CANYON    2100            70 73   50/  6/  8 1021.2          3/ 8
EXECUTION ROCKS  2100            81 72   80/  4/  4   N/A
WESTERN LI SOUND 2100            76     100/  6/  8   N/A           0
CENTRAL LI SOUND 2000            74 73  200/  6/  8   N/A           1
EASTERN LI SOUND 2000            71 68  150/  6/  6   N/A
ROBBINS REEF     2100            74     170/ 17/ 19   N/A
$$


>>>>>>>>>>>>>>>>>>>>>>>>>>>> KEY <<<<<<<<<<<<<<<<<<<<<<<<<<<
>                                                          <
>     SKY/WX - SKY CONDITION/PRESENT WEATHER               <
>     TMP    - TEMPERATURE IN FAHRENHEIT                   <
>     DP     - DEWPOINT IN FAHRENHEIT                      <
>     RH     - RELATIVE HUMIDITY IN PERCENT                <
>     WIND   - DIRECTION AND SPEED IN MPH                  <
>     PRES   - MEAN SEA LEVEL PRESSURE IN INCHES OF HG     <
>     WCI    - WIND CHILL INDEX                            <
>     VSB    - VISIBILITY IN MILES                         <
>     HX     - HEAT INDEX                                  <
>     TC     - TEMPERATURE IN CELSIUS                      <
>     VRB    - VARIABLE WIND DIRECTION                     <
>                                                          <
>>>>>>>>>>>>>>>>>>>>>>>>>>>> KEY <<<<<<<<<<<<<<<<<<<<<<<<<<<




USA.gov is the U.S. government's official web portal to all federal, state and local government web resources and services.